| time (UTC) | temp F | wind direction | speed knots | gust knots | rain 1hr in | rain 24hr in | rain mn in | humidity % | barometer mb |
| 20260504213516 | 70 | 288 | 0.9 | 2.6 | 0.00 | 0.00 | 0.00 | 35 | 1006.0 |
| 20260504212517 | 70 | 237 | 0.9 | 3.5 | 0.00 | 0.00 | 0.00 | 34 | 1006.0 |
| 20260504211537 | 70 | 240 | 0.9 | 2.6 | 0.00 | 0.00 | 0.00 | 34 | 1006.0 |
| 20260504210517 | 70 | 233 | 1.7 | 2.6 | 0.00 | 0.00 | 0.00 | 33 | 1006.0 |
| 20260504205517 | 70 | 207 | 0.9 | 3.5 | 0.00 | 0.00 | 0.00 | 33 | 1006.0 |
| 20260504204537 | 71 | 232 | 1.7 | 3.5 | 0.00 | 0.00 | 0.00 | 34 | 1006.0 |
| 20260504203517 | 71 | 275 | 1.7 | 4.3 | 0.00 | 0.00 | 0.00 | 33 | 1006.0 |
| 20260504202517 | 70 | 268 | 0.9 | 3.5 | 0.00 | 0.00 | 0.00 | 34 | 1006.0 |
| 20260504201518 | 71 | 179 | 0.9 | 2.6 | 0.00 | 0.00 | 0.00 | 34 | 1006.0 |
| 20260504200517 | 71 | 264 | 0.9 | 2.6 | 0.00 | 0.00 | 0.00 | 33 | 1006.0 |
| 20260504195518 | 71 | 233 | 1.7 | 5.2 | 0.00 | 0.00 | 0.00 | 34 | 1006.0 |
| 20260504194538 | 70 | 241 | 1.7 | 5.2 | 0.00 | 0.00 | 0.00 | 34 | 1006.1 |
| 20260504193538 | 69 | 261 | 0.9 | 3.5 | 0.00 | 0.00 | 0.00 | 34 | 1006.1 |
| 20260504192515 | 69 | 277 | 1.7 | 5.2 | 0.00 | 0.00 | 0.00 | 34 | 1006.2 |
| 20260504191515 | 69 | 214 | 0.9 | 2.6 | 0.00 | 0.00 | 0.00 | 34 | 1006.2 |
| 20260504190516 | 69 | 236 | 1.7 | 3.5 | 0.00 | 0.00 | 0.00 | 34 | 1006.3 |
| 20260504185516 | 69 | 243 | 1.7 | 4.3 | 0.00 | 0.00 | 0.00 | 34 | 1006.3 |
| 20260504184516 | 69 | 224 | 1.7 | 2.6 | 0.00 | 0.00 | 0.00 | 33 | 1006.4 |
| 20260504183516 | 70 | 242 | 0.9 | 2.6 | 0.00 | 0.00 | 0.00 | 33 | 1006.5 |
| 20260504182516 | 71 | 270 | 1.7 | 4.3 | 0.00 | 0.00 | 0.00 | 32 | 1006.5 |
| 20260504181516 | 70 | 239 | 1.7 | 3.5 | 0.00 | 0.00 | 0.00 | 33 | 1006.5 |
| 20260504180516 | 71 | 254 | 1.7 | 5.2 | 0.00 | 0.00 | 0.00 | 32 | 1006.6 |
| 20260504175516 | 72 | 219 | 1.7 | 4.3 | 0.00 | 0.00 | 0.00 | 31 | 1006.6 |
| 20260504174517 | 72 | 250 | 1.7 | 3.5 | 0.00 | 0.00 | 0.00 | 31 | 1006.5 |
| 20260504173517 | 71 | 249 | 1.7 | 5.2 | 0.00 | 0.00 | 0.00 | 32 | 1006.6 |
| 20260504172517 | 71 | 285 | 1.7 | 5.2 | 0.00 | 0.00 | 0.00 | 31 | 1006.7 |
| 20260504171517 | 70 | 259 | 1.7 | 3.5 | 0.00 | 0.00 | 0.00 | 33 | 1006.8 |
| 20260504170517 | 71 | 221 | 1.7 | 3.5 | 0.00 | 0.00 | 0.00 | 33 | 1006.9 |
| 20260504150516 | 65 | 234 | 2.6 | 6.1 | 0.00 | 0.00 | 0.00 | 36 | 1007.8 |
| 20260504140517 | 61 | 326 | 0.0 | 2.6 | 0.00 | 0.00 | 0.00 | 42 | 1008.7 |
| 20260504130518 | 55 | 228 | 0.9 | 1.7 | 0.00 | 0.00 | 0.00 | 51 | 1009.2 |
| 20260504110519 | 40 | 202 | 0.0 | 0.9 | 0.00 | 0.00 | 0.00 | 82 | 1009.6 |
| 20260504100520 | 39 | 0.0 | 0.0 | 0.00 | 0.00 | 0.00 | 85 | 1009.6 | |
| 20260504081521 | 40 | 0.0 | 0.0 | 0.00 | 0.00 | 0.00 | 84 | 1009.7 | |
| 20260504080521 | 40 | 243 | 0.0 | 0.9 | 0.00 | 0.00 | 0.00 | 84 | 1009.6 |
| 20260504050516 | 35 | 0.0 | 0.0 | 0.00 | 0.00 | 0.00 | 87 | 1009.6 | |
| 20260504045515 | 35 | 103 | 0.0 | 0.0 | 0.00 | 0.00 | 0.00 | 88 | 1009.7 |
| 20260504044516 | 35 | 232 | 0.0 | 0.0 | 0.00 | 0.00 | 0.00 | 88 | 1009.7 |
| 20260504043516 | 34 | 0.0 | 0.0 | 0.00 | 0.00 | 0.00 | 88 | 1009.7 | |
| 20260504042516 | 34 | 0.0 | 0.0 | 0.00 | 0.00 | 0.00 | 87 | 1009.7 | |
| 20260504041516 | 34 | 325 | 0.0 | 0.9 | 0.00 | 0.00 | 0.00 | 86 | 1009.6 |
| 20260504040516 | 35 | 0.0 | 0.0 | 0.00 | 0.00 | 0.00 | 87 | 1009.6 | |
| 20260504035516 | 35 | 0.0 | 0.0 | 0.00 | 0.00 | 0.00 | 86 | 1009.6 | |
| 20260504034516 | 34 | 0.0 | 0.0 | 0.00 | 0.00 | 0.00 | 86 | 1009.5 | |
| 20260504033516 | 34 | 21 | 0.0 | 0.9 | 0.00 | 0.00 | 0.00 | 84 | 1009.5 |
| 20260504032517 | 34 | 0.0 | 0.0 | 0.00 | 0.00 | 0.00 | 83 | 1009.4 | |
| 20260504031537 | 35 | 0.0 | 0.0 | 0.00 | 0.00 | 0.00 | 83 | 1009.4 | |
| 20260504030517 | 35 | 0.0 | 0.0 | 0.00 | 0.00 | 0.00 | 82 | 1009.4 | |
| 20260504025517 | 35 | 0.0 | 0.0 | 0.00 | 0.00 | 0.00 | 82 | 1009.4 | |
| 20260504024517 | 35 | 16 | 0.0 | 0.9 | 0.00 | 0.00 | 0.00 | 82 | 1009.4 |
| 20260504023517 | 35 | 0.0 | 0.0 | 0.00 | 0.00 | 0.00 | 82 | 1009.4 | |
| 20260504022518 | 35 | 44 | 0.0 | 0.9 | 0.00 | 0.00 | 0.00 | 82 | 1009.4 |
| 20260504021515 | 36 | 29 | 0.0 | 0.9 | 0.00 | 0.00 | 0.00 | 81 | 1009.4 |
| 20260504020538 | 36 | 0.0 | 0.0 | 0.00 | 0.00 | 0.00 | 80 | 1009.3 | |
| 20260504015518 | 36 | 28 | 0.0 | 0.9 | 0.00 | 0.00 | 0.00 | 79 | 1009.2 |
| 20260504014535 | 37 | 33 | 0.0 | 0.9 | 0.00 | 0.00 | 0.00 | 78 | 1009.2 |
| 20260504013515 | 37 | 343 | 0.0 | 0.9 | 0.00 | 0.00 | 0.00 | 77 | 1009.1 |
| 20260504012515 | 38 | 0.0 | 0.0 | 0.00 | 0.00 | 0.00 | 76 | 1009.1 | |
| 20260504011515 | 38 | 21 | 0.0 | 0.0 | 0.00 | 0.00 | 0.00 | 75 | 1008.9 |
| 20260504010516 | 39 | 0.0 | 0.0 | 0.00 | 0.00 | 0.00 | 73 | 1008.8 | |
| 20260504005516 | 39 | 28 | 0.0 | 1.7 | 0.00 | 0.00 | 0.00 | 72 | 1008.7 |
| 20260504004516 | 40 | 37 | 0.0 | 1.7 | 0.00 | 0.00 | 0.00 | 73 | 1008.6 |
| 20260504003516 | 40 | 350 | 0.0 | 0.0 | 0.00 | 0.00 | 0.00 | 72 | 1008.5 |
| 20260504002516 | 41 | 35 | 0.0 | 0.9 | 0.00 | 0.00 | 0.00 | 71 | 1008.4 |
| 20260504001516 | 42 | 40 | 0.0 | 1.7 | 0.00 | 0.00 | 0.00 | 68 | 1008.3 |
| 20260504000537 | 43 | 30 | 0.0 | 0.9 | 0.00 | 0.00 | 0.00 | 68 | 1008.2 |
| 20260503235517 | 44 | 21 | 0.0 | 0.9 | 0.00 | 0.00 | 0.00 | 66 | 1008.1 |
| 20260503234537 | 45 | 344 | 0.0 | 0.9 | 0.00 | 0.00 | 0.00 | 62 | 1008.0 |
| 20260503233517 | 46 | 42 | 0.0 | 1.7 | 0.00 | 0.00 | 0.00 | 61 | 1007.9 |
| 20260503232517 | 48 | 35 | 0.0 | 1.7 | 0.00 | 0.00 | 0.00 | 53 | 1007.8 |
| 20260503231517 | 48 | 358 | 0.0 | 0.9 | 0.00 | 0.00 | 0.00 | 46 | 1007.7 |
| 20260503230517 | 49 | 234 | 0.9 | 2.6 | 0.00 | 0.00 | 0.00 | 47 | 1007.7 |
| 20260503225517 | 49 | 342 | 0.9 | 3.5 | 0.00 | 0.00 | 0.00 | 46 | 1007.5 |
| 20260503224518 | 49 | 330 | 0.9 | 3.5 | 0.00 | 0.00 | 0.00 | 44 | 1007.4 |
| 20260503223635 | 49 | 3 | 1.7 | 4.3 | 0.00 | 0.00 | 0.00 | 44 | 1007.3 |
| 20260503222518 | 50 | 339 | 0.9 | 3.5 | 0.00 | 0.00 | 0.00 | 43 | 1007.3 |
| 20260503221519 | 50 | 229 | 0.9 | 3.5 | 0.00 | 0.02 | 0.00 | 43 | 1007.2 |
| 20260503220516 | 50 | 289 | 1.7 | 4.3 | 0.00 | 0.02 | 0.00 | 43 | 1007.1 |
| 20260503215516 | 50 | 249 | 0.9 | 3.5 | 0.00 | 0.03 | 0.00 | 43 | 1007.0 |
| 20260503214515 | 51 | 5 | 2.6 | 6.1 | 0.00 | 0.03 | 0.00 | 43 | 1007.0 |